Change the Weather History Date:

Sunday, December 1, 2013

  Actual Average Record
Temperature  
Mean Temperature 15 °F -  
Max Temperature 18 °F 33 °F 46 °F (1987)
Min Temperature 12 °F 26 °F -6 °F (1990)
Degree Days  
Heating Degree Days 50    
Moisture  
Dew Point -8 °F    
Average Humidity 37    
Maximum Humidity 43    
Minimum Humidity 33    
Precipitation  
Precipitation 0.00 in - - ()
Sea Level Pressure  
Sea Level Pressure 30.51 in    
Wind  
Wind Speed 18 mph (NNE)    
Max Wind Speed 28 mph    
Max Gust Speed 45 mph    
Visibility 10 miles    
Events      
Averages and records for this station are not official NWS values.
T = Trace of Precipitation, MM = Missing Value Source: NWS Daily Summary

Daily Weather History Graph

Daily Weather History Graph

Search for Another Location

Airport or City:

Trip Planner

Search our weather history database for the weather conditions in past years. The results will help you decide how hot, cold, wet, or windy it might be!

Date:

Astronomy

Dec. 01, 2013 Rise Set
Actual Time 8:32 AM AKST 3:07 PM AKST
Civil Twilight 7:39 AM AKST 4:00 PM AKST
Nautical Twilight 6:45 AM AKST 4:54 PM AKST
Astronomical Twilight 5:56 AM AKST 5:44 PM AKST
Moon 6:39 AM AKST 2:41 PM AKST
Length of Visible Light 8h 20m
Length of Day
6h 35m
Waning Crescent, 2% of the Moon is Illuminated
Dec 1
Waning Crescent
Dec 2
New
Dec 9
First Quarter
Dec 17
Full
Dec 25
Last Quarter

Hourly Weather History & Observations

Time (AKST) Temp. Windchill Dew Point Humidity Pressure Visibility Wind Dir Wind Speed Gust Speed Precip Events Conditions
12:53 AM 15.1 °F 0.5 °F -6.0 °F 39% 30.28 in 10.0 mi NNE 13.8 mph 26.5 mph N/A   Mostly Cloudy
1:53 AM 15.1 °F -1.6 °F -6.0 °F 39% 30.29 in 10.0 mi NNE 18.4 mph 27.6 mph N/A   Mostly Cloudy
3:53 AM 15.1 °F -1.6 °F -8.0 °F 36% 30.32 in 10.0 mi NNE 18.4 mph 26.5 mph N/A   Scattered Clouds
4:53 AM 14.0 °F -1.4 °F -8.0 °F 37% 30.35 in 10.0 mi NNE 15.0 mph 25.3 mph N/A   Clear
5:53 AM 14.0 °F -2.0 °F -9.0 °F 35% 30.38 in 10.0 mi NNE 16.1 mph 33.4 mph N/A   Clear
6:53 AM 12.9 °F -3.4 °F -9.9 °F 35% 30.40 in 10.0 mi NNE 16.1 mph 28.8 mph N/A   Clear
7:53 AM 12.9 °F -2.8 °F -9.9 °F 35% 30.42 in 10.0 mi NNE 15.0 mph 31.1 mph N/A   Clear
8:53 AM 12.9 °F -2.2 °F -9.9 °F 35% 30.44 in 10.0 mi NNE 13.8 mph 24.2 mph N/A   Partly Cloudy
9:53 AM 12.9 °F -4.4 °F -9.0 °F 37% 30.46 in 10.0 mi NNE 18.4 mph 27.6 mph N/A   Mostly Cloudy
10:53 AM 12.9 °F -2.8 °F -8.0 °F 39% 30.49 in 10.0 mi NNE 15.0 mph 32.2 mph N/A   Mostly Cloudy
11:53 AM 12.9 °F -6.1 °F -8.0 °F 39% 30.49 in 10.0 mi NNE 23.0 mph 40.3 mph N/A   Scattered Clouds
12:53 PM 14.0 °F -4.7 °F -5.1 °F 43% 30.51 in 10.0 mi NNE 23.0 mph 34.5 mph N/A   Overcast
1:53 PM 14.0 °F -5.1 °F -8.0 °F 37% 30.52 in 10.0 mi NNE 24.2 mph 35.7 mph N/A   Overcast
2:53 PM 14.0 °F -5.8 °F -8.0 °F 37% 30.54 in 10.0 mi NNE 26.5 mph 44.9 mph N/A   Overcast
3:53 PM 14.0 °F -6.2 °F -8.0 °F 37% 30.56 in 10.0 mi NNE 27.6 mph 35.7 mph N/A   Overcast
4:53 PM 15.1 °F -2.9 °F -8.0 °F 36% 30.58 in 10.0 mi NNE 21.9 mph 34.5 mph N/A   Overcast
5:53 PM 15.1 °F -0.1 °F -8.0 °F 36% 30.63 in 10.0 mi North 15.0 mph 35.7 mph N/A   Overcast
6:53 PM 15.1 °F 1.1 °F -8.0 °F 36% 30.65 in 10.0 mi NNE 12.7 mph 34.5 mph N/A   Clear
7:53 PM 16.0 °F -0.4 °F -7.1 °F 36% 30.65 in 10.0 mi NNE 18.4 mph 31.1 mph N/A   Clear
8:53 PM 17.1 °F 2.0 °F -7.1 °F 34% 30.67 in 10.0 mi NNE 16.1 mph 27.6 mph N/A   Clear
9:53 PM 18.0 °F 0.2 °F -7.1 °F 33% 30.67 in 10.0 mi NNE 24.2 mph 36.8 mph N/A   Clear
10:53 PM 18.0 °F 0.9 °F -7.1 °F 33% 30.68 in 10.0 mi NNE 21.9 mph 42.6 mph N/A   Clear
11:53 PM 18.0 °F 0.6 °F -5.1 °F 36% 30.71 in 10.0 mi NNE 23.0 mph 38.0 mph N/A   Clear